Location: Unspecified
(0.0000°N, 0.0000°E)
Time: 08:47:34
(UTC+00:00)

Vanguard 2 - Pass Details

Date: 26 October 2021
Orbit: 554 x 2936 km, 32.9° (Epoch: 06 December)

Event Time Altitude Azimuth Distance (km) Brightness Sun altitude
Rises 17:21:30 0° 212° (SSW) 5,256 12.6 5.5°
Reaches altitude 10° 17:25:47 10° 198° (SSW) 4,635 12.0 4.4°
Maximum altitude 17:36:07 24° 150° (SSE) 4,277 11.2 1.9°
Drops below altitude 10° 17:48:40 10° 103° (ESE) 5,743 11.4 -1.2°
Enters shadow 17:54:23 - 92° (E) 6,708 11.7 -2.6°
Sets 17:54:47 0° 91° (E) 6,777 - -2.6°
